loading
|
Showing default

EXPLORER 36 (GEOS 2), 3093

Orbit data source: Space-Track

EXPLORER 36 (GEOS 2), 3093 is a payload satellite owned by GSFC (US) in LEO that was launched on Thu, 11 Jan 1968 UTC via a THOR DELTA E1 launch vehicle from the Air Force Western Test Range (AFWTR). Payloads include a variety of satellites, spacecraft, and rockets equipped with specific instruments for various scientific and technological missions. These include communications satellites like Starlink; space stations such as the ISS; scientific satellites like the Hubble; Earth observation satellites from companies like Planet Labs, Umbra, and HawkEye 360; GPS; miniature CubeSats for education and research; and military/defense satellites.

Loading next visibility...
Loading greatness...
EXPLORER 36 (GEOS 2) details
Identifier
3093, 1968-002A
Orbit
LEO
Last TLE update12 hours ago
Origin
Flag of USGSFC (US)
ManufacturerAPL
MissionCivil Geodetic
Bus & MotorANNA, Unknown motor
Mass212 kg wet, 212 kg dry
Launch date (UTC)
1968-01-11 (57 years ago)
Launch vehicle
THOR DELTA E1
Launch site
Air Force Western Test Range (AFWTR)
Object type
Payload
Rocket body
Debris
Shape & HBROct Cyl + 1 Dome + 1 Ant, 8.9 m
Radar Cross Section2.095 m², Large (>1 m²)

Expand to show TLE details & history

TLE from 12 hours ago
0 EXPLORER 36 (GEOS 2)
1 03093U 68002A   24278.54450889 -.00000025  00000-0  16807-3 0  9990
2 03093 105.8042 270.3794 0318519  33.0961  77.2997 12.83578152657728
Epoch: 2024-10-04T13:04Z
Definitive object data (Epoch: 2024-10-04T13:04:05.568Z)
Latitude61.6324°
Longitude-87.91979°
Altitude1,290.848 km
Speed7.238 km/s
True Right ascension08h 07m 16s
True Declination61° 29' 54"
Sunlit
Object was in daylight at TLE epoch
Predictive object data (real-time)
Latitude-37.87166°
Longitude-131.32297°
Altitude1,584.545 km
Speed6.963 km/s
Apparent Right ascension05h 54m 49s
Apparent Declination-39° 12' 01"
Sunlit
Object is in daylight
Predictive observer data (real-time)
Local Sidereal Time18:47:53
Azimuth90.25° ESE
Elevation-79.756°
Doppler factor1
Orbital elements
Apogee1,570.253 km
Perigee1,079.541 km
Semi-major axis7,703.034 km
Eccentricity0.0318519
Inclination105.8042°
RAAN270.3794°
Arg. of periapsis33.0961°
True anomaly80.88944°
Mean anomaly77.2997°
Eccentric anomaly79.0917°
Mean motion3.21034 °/min
BSTAR0.00016807
Period112.14 mins
No data available

EXPLORER 36 (GEOS 2) Visibility forecast

Observer location: 39.9160978°, -105.1181434

EXPLORER 36 (GEOS 2) is not visible in the next 10 days
Span
Click to sort rows by Start time (UTC) header in descending order
Start Az.
Max El. time (UTC)
Max El. Az.
Max El.
End time (UTC)
End Az.